Wind_Speed
37 35 32 33 39 38 38 37 29 24 28 32 28 27 25 23 24 26 24 20 18 17 20 20 22 24 24 25 24 22 25 28 38 43 36 34 33 22 24 29 24 26 29
33 32 34 36 39 36 40 30 26 22 28 29 27 27 25 22 25 24 21 18 20 22 22 22 23 26 26 27 24 24 27 30 37 41 33 30 31 22 24 29 28 27 28
26 33 36 35 34 35 31 31 19 24 26 27 30 25 22 23 23 22 19 18 22 22 19 21 25 26 27 27 28 27 28 34 31 38 38 35 28 26 27 29 29 29 28
30 28 34 32 32 29 30 30 22 30 28 27 28 22 21 22 21 19 18 21 22 18 19 18 21 24 26 27 28 28 24 33 34 33 35 40 32 30 29 29 27 27 29
30 31 32 31 28 34 35 26 28 33 31 29 26 24 23 20 19 17 18 21 20 16 18 21 23 26 24 26 28 30 29 36 36 35 32 37 39 29 25 28 26 23 25
31 37 36 37 41 41 35 28 34 32 29 30 27 24 22 17 17 16 18 20 17 13 17 20 22 22 28 30 27 32 36 35 30 35 32 33 35 33 34 35 27 26 25
36 31 33 36 35 33 33 32 32 31 31 31 27 25 19 17 17 15 20 18 13 13 16 17 17 16 24 24 25 29 36 30 30 33 35 36 33 30 32 30 24 24 24
20 26 32 34 36 32 30 34 34 33 32 31 28 25 20 16 16 17 21 18 16 16 16 16 16 16 17 20 27 25 34 31 29 27 29 30 29 29 27 25 24 24 24
21 27 27 30 34 38 34 35 33 31 34 33 29 27 22 15 17 21 21 19 19 19 17 15 14 17 12 16 29 26 29 32 31 26 27 31 33 30 26 24 24 23 22
24 25 26 29 33 35 33 32 34 30 31 33 30 28 20 13 19 22 21 20 20 19 19 16 13 16 10 17 28 31 31 34 31 26 28 29 31 28 25 23 24 25 23
19 23 31 31 32 26 25 31 29 30 30 29 29 24 18 14 19 24 21 21 21 20 19 16 14 14 13 13 24 28 29 28 31 25 27 27 28 28 27 27 26 24 25
15 21 28 29 33 32 30 27 28 27 31 31 30 26 21 16 18 23 24 22 21 20 19 16 14 11 10 12 18 20 21 22 26 23 21 20 23 23 27 28 27 26 29
15 20 28 33 33 31 31 31 33 30 33 31 31 29 26 22 18 18 23 23 20 19 18 17 13 11 8 9 11 15 19 21 20 23 25 24 29 29 27 27 28 30 31
15 19 28 35 34 34 34 32 34 34 31 28 31 31 26 23 21 21 20 20 21 19 18 17 15 13 12 12 12 16 22 20 19 20 26 27 29 30 29 30 29 27 27
17 18 22 28 32 33 36 38 36 35 33 30 33 33 30 27 25 25 22 20 19 19 17 17 17 17 16 15 17 18 23 27 27 25 26 24 23 23 26 26 27 29 29
15 15 22 28 31 33 37 39 37 37 37 35 35 35 33 32 31 28 28 26 22 20 20 19 19 20 21 21 20 20 23 25 27 26 27 28 27 27 28 27 28 30 31
12 15 16 21 31 33 38 41 41 41 41 39 39 37 36 36 36 34 31 31 28 25 23 22 23 24 26 27 28 28 28 28 28 29 29 29 29 30 30 32 33 35 36
13 14 16 20 26 36 40 43 46 45 44 42 42 45 44 45 46 40 37 35 33 31 28 27 27 28 29 32 34 34 34 35 35 35 35 35 35 35 35 36 37 37 37
18 15 14 17 22 27 34 46 48 46 44 47 42 46 40 46 49 46 43 38 37 37 36 32 33 30 31 37 36 38 38 39 39 39 39 39 39 39 39 38 38 37 38
20 19 19 18 15 29 38 37 48 52 49 45 39 48 44 48 46 48 47 44 42 41 41 39 35 38 39 33 38 42 42 44 43 43 43 43 43 42 42 41 42 44 45
17 19 16 17 17 19 22 39 39 46 49 50 46 47 43 45 50 54 49 49 47 49 46 43 39 36 33 41 47 50 45 47 45 48 48 48 49 48 48 49 50 49 51
20 18 18 18 19 18 19 23 43 49 46 49 50 50 50 51 51 53 47 51 53 57 54 53 47 38 39 37 53 55 48 51 54 55 56 54 55 55 55 55 56 58 62
22 21 18 15 18 20 20 24 20 32 52 53 60 61 60 54 49 47 66 59 65 69 74 67 61 62 46 50 51 50 57 63 60 61 62 62 60 62 64 66 65 62 59
22 22 20 20 20 19 22 19 19 17 20 21 31 41 46 51 52 54 63 59 63 57 53 46 56 61 56 58 55 59 62 70 69 70 70 61 58 55 53 51 51 47 44
22 23 19 17 16 18 18 14 13 15 15 16 18 21 22 21 22 23 28 31 35 36 35 40 45 45 43 46 49 50 49 54 49 48 49 47 45 43 38 41 46 49 53
19 20 21 20 19 19 20 18 17 20 20 18 18 18 18 17 20 23 26 28 28 28 29 32 34 35 36 39 40 37 37 37 36 36 36 36 38 42 47 51 53 56 59
Wind_Direction
244 244 247 244 246 238 236 237 235 243 244 245 244 248 257 266 276 273 270 266 264 257 255 256 257 258 255 251 254 256 245 241 214 221 216 211 228 231 231 223 218 223 232
238 243 240 238 240 235 236 233 242 236 240 236 236 239 251 265 271 268 261 259 263 262 263 261 259 255 252 250 251 246 240 233 218 208 218 209 222 221 217 218 219 227 236
228 232 233 237 239 233 231 239 237 233 231 225 230 236 248 262 265 258 254 261 263 265 270 266 264 259 257 251 243 241 232 226 234 230 222 214 212 216 212 213 220 232 239
219 234 228 234 237 238 237 244 227 225 221 220 229 236 247 259 260 255 261 262 263 264 274 278 266 253 251 247 240 237 236 226 229 230 226 223 218 215 220 220 222 235 244
220 227 223 232 239 235 242 241 215 221 215 219 223 232 246 254 250 254 254 261 263 270 279 277 287 262 249 242 239 227 229 229 230 233 232 231 231 233 234 230 234 228 232
214 213 213 216 218 229 234 219 212 216 216 220 219 231 240 255 257 254 258 261 268 276 276 280 296 260 244 241 236 231 228 230 222 232 238 234 236 241 248 244 237 228 231
223 224 224 220 233 235 231 214 208 215 212 218 217 231 238 255 253 251 257 262 264 263 276 287 310 267 254 246 230 230 220 227 227 235 231 236 241 240 237 237 219 220 223
231 221 226 234 237 237 232 217 214 214 213 212 218 230 237 249 243 248 255 255 250 258 278 282 305 288 248 237 221 226 219 222 221 226 221 228 231 228 224 217 210 219 229
232 225 223 229 235 238 223 208 212 217 213 214 218 227 231 239 235 240 249 252 253 256 272 294 292 307 230 222 208 214 216 214 224 221 227 230 233 225 217 225 226 231 240
244 226 218 221 233 240 228 217 218 220 215 218 219 223 226 235 234 239 244 252 258 262 271 290 290 297 259 213 211 219 221 214 221 229 225 222 220 225 230 248 241 242 245
232 220 216 217 225 226 229 213 218 215 209 221 225 218 221 227 240 240 239 249 259 263 270 286 298 294 274 236 211 203 213 220 221 228 226 225 223 234 239 240 241 251 247
228 217 214 219 221 221 230 238 231 210 213 218 219 219 222 229 242 242 240 245 251 259 265 277 293 282 272 236 200 205 204 213 212 227 229 228 226 229 241 242 246 250 256
241 223 216 219 221 228 229 232 234 223 220 214 214 215 214 227 232 250 246 245 251 255 260 266 273 276 258 257 247 209 205 200 208 222 224 234 229 230 230 235 241 249 258
254 237 225 219 223 227 234 228 222 224 227 214 220 220 220 227 236 241 246 243 246 251 254 258 261 265 253 230 221 222 208 210 221 230 223 221 228 231 242 246 250 249 250
250 248 240 227 222 224 226 227 221 223 225 219 221 222 223 231 235 242 245 245 246 250 256 260 260 262 260 253 233 222 220 227 233 239 229 230 231 233 238 238 242 247 252
256 253 242 231 224 222 222 221 218 218 222 227 226 228 230 232 235 237 241 244 247 251 249 251 256 258 258 253 250 245 237 235 236 235 238 237 238 240 244 245 248 251 255
283 262 245 231 228 224 221 223 221 221 223 228 238 243 242 238 242 236 239 246 244 245 249 255 253 256 257 254 252 247 245 244 243 243 244 243 243 245 247 250 252 255 258
279 277 276 258 238 229 225 223 225 225 227 233 240 244 244 256 247 241 241 243 246 248 245 253 256 259 258 259 255 250 247 246 247 248 248 249 248 249 249 251 254 255 257
276 267 276 267 239 237 231 230 224 227 231 233 239 245 247 241 241 239 242 244 250 250 250 255 249 259 261 255 254 254 251 248 249 249 249 248 248 249 250 252 253 257 261
272 266 263 269 264 232 244 244 220 226 233 238 243 247 246 239 245 246 244 246 248 250 249 250 255 262 259 258 255 256 254 251 251 248 248 249 251 252 253 256 263 267 268
256 266 271 267 260 274 255 239 225 226 232 234 243 244 246 234 247 241 250 249 250 246 248 249 250 246 249 268 257 251 254 254 253 250 249 251 253 255 258 263 264 264 268
256 253 263 274 273 274 265 264 247 237 234 233 241 241 237 250 251 240 245 256 247 249 251 248 244 253 254 250 247 262 233 259 254 252 252 253 255 257 260 264 265 266 268
257 252 251 262 274 265 263 258 255 247 241 233 234 237 226 240 249 237 238 242 251 233 242 238 248 250 253 258 258 259 263 266 254 253 253 254 255 258 260 265 269 272 274
261 254 249 254 270 267 260 257 251 253 247 254 247 241 241 242 237 231 234 242 236 238 243 246 244 244 255 259 261 265 266 263 255 254 259 261 267 267 273 274 274 273 275
261 253 252 249 251 249 241 242 267 271 265 257 255 251 246 242 244 248 251 250 246 247 248 252 251 253 257 260 262 264 263 261 261 260 261 263 264 268 274 278 278 276 275
259 261 256 258 253 254 254 261 262 267 266 264 262 263 264 258 255 250 256 258 259 252 253 254 256 256 255 257 258 256 258 260 265 270 273 274 274 274 273 273 273 273 274
Height
5673 5677 5682 5687 5693 5697 5698 5705 5711 5716 5717 5719 5724 5724 5726 5727 5727 5726 5725 5723 5723 5725 5726 5728 5729 5731 5733 5734 5736 5737 5738 5740 5742 5746 5752 5758 5761 5764 5770 5771 5774 5779 5783
5663 5668 5673 5679 5683 5687 5690 5698 5702 5705 5708 5712 5716 5717 5720 5721 5721 5719 5719 5718 5718 5720 5720 5721 5722 5724 5725 5727 5729 5731 5733 5734 5738 5743 5749 5752 5757 5759 5764 5767 5769 5773 5778
5655 5661 5667 5671 5675 5677 5683 5690 5694 5697 5701 5705 5708 5711 5714 5715 5715 5713 5713 5713 5714 5714 5715 5715 5715 5717 5719 5721 5722 5725 5729 5730 5734 5738 5744 5747 5751 5753 5758 5761 5764 5768 5771
5647 5654 5660 5663 5666 5669 5676 5680 5685 5689 5693 5698 5701 5705 5708 5709 5708 5708 5707 5708 5708 5708 5709 5708 5708 5709 5711 5712 5715 5719 5721 5726 5729 5733 5738 5742 5745 5748 5751 5755 5758 5761 5763
5640 5646 5651 5656 5659 5663 5669 5674 5679 5682 5684 5691 5694 5698 5701 5702 5702 5702 5702 5703 5702 5703 5703 5703 5702 5701 5702 5704 5707 5711 5715 5721 5724 5728 5732 5737 5739 5743 5747 5750 5752 5756 5757
5631 5635 5639 5646 5648 5652 5658 5666 5672 5674 5679 5684 5688 5692 5693 5695 5695 5696 5696 5697 5696 5697 5698 5698 5695 5693 5694 5696 5700 5704 5709 5714 5718 5722 5726 5730 5734 5738 5741 5743 5745 5748 5751
5627 5633 5638 5642 5647 5650 5651 5660 5664 5667 5673 5678 5682 5684 5687 5689 5690 5690 5692 5692 5692 5694 5694 5692 5690 5686 5686 5689 5693 5698 5702 5708 5713 5717 5721 5724 5727 5731 5734 5736 5739 5742 5745
5619 5626 5633 5637 5640 5644 5649 5652 5657 5660 5664 5670 5675 5678 5682 5683 5685 5686 5687 5688 5689 5691 5690 5688 5684 5681 5681 5684 5687 5692 5698 5703 5708 5711 5715 5719 5723 5726 5728 5731 5734 5737 5740
5617 5621 5625 5630 5633 5634 5640 5645 5650 5654 5658 5664 5667 5672 5675 5678 5680 5682 5683 5684 5686 5686 5686 5684 5680 5678 5677 5679 5684 5689 5694 5699 5703 5706 5710 5714 5717 5720 5724 5727 5730 5732 5735
5611 5615 5619 5622 5625 5630 5632 5636 5640 5646 5653 5658 5661 5667 5670 5671 5675 5677 5678 5680 5681 5681 5681 5680 5678 5675 5674 5677 5681 5685 5689 5694 5698 5701 5705 5708 5712 5715 5719 5721 5723 5726 5727
5606 5610 5612 5615 5620 5628 5626 5633 5637 5635 5647 5653 5656 5662 5665 5667 5670 5672 5674 5676 5677 5677 5678 5676 5675 5674 5672 5674 5676 5681 5685 5689 5693 5697 5700 5703 5707 5711 5714 5715 5717 5718 5720
5600 5604 5608 5612 5617 5624 5627 5629 5632 5629 5640 5647 5652 5656 5660 5663 5665 5667 5670 5672 5673 5674 5675 5675 5674 5673 5672 5673 5675 5677 5680 5684 5689 5693 5696 5699 5702 5705 5707 5709 5710 5711 5712
5595 5599 5604 5609 5613 5616 5621 5625 5627 5631 5636 5641 5646 5650 5653 5657 5660 5663 5665 5666 5668 5670 5671 5672 5672 5672 5671 5671 5672 5674 5678 5681 5685 5687 5690 5693 5694 5698 5700 5702 5703 5704 5705
5590 5594 5598 5604 5608 5612 5614 5620 5625 5627 5632 5638 5642 5646 5647 5652 5656 5658 5660 5661 5663 5665 5666 5667 5668 5669 5669 5669 5670 5673 5675 5678 5680 5683 5684 5686 5688 5691 5693 5695 5696 5697 5699
5588 5589 5592 5596 5601 5606 5610 5614 5620 5622 5626 5632 5635 5639 5642 5646 5650 5652 5655 5656 5659 5660 5662 5663 5665 5665 5666 5668 5669 5670 5673 5674 5675 5677 5680 5684 5684 5685 5687 5688 5690 5691 5692
5583 5585 5587 5590 5594 5599 5604 5608 5613 5617 5621 5624 5628 5632 5636 5639 5643 5646 5648 5650 5652 5655 5657 5658 5660 5661 5662 5663 5665 5667 5668 5669 5670 5672 5674 5675 5678 5679 5680 5681 5683 5684 5684
5579 5581 5582 5584 5587 5591 5597 5602 5607 5611 5614 5618 5621 5625 5629 5632 5634 5638 5642 5644 5646 5649 5651 5653 5655 5656 5657 5658 5659 5661 5662 5664 5665 5666 5667 5668 5670 5671 5672 5673 5674 5674 5675
5576 5576 5577 5577 5580 5584 5589 5594 5598 5603 5607 5612 5615 5618 5621 5623 5626 5629 5633 5636 5638 5642 5644 5646 5648 5649 5650 5651 5652 5653 5655 5656 5657 5658 5659 5660 5662 5662 5664 5664 5664 5664 5664
5572 5572 5572 5573 5573 5576 5581 5585 5589 5594 5598 5603 5606 5609 5611 5613 5616 5619 5622 5626 5629 5632 5635 5638 5640 5641 5641 5642 5643 5645 5646 5647 5649 5650 5651 5651 5652 5652 5651 5653 5653 5653 5652
5567 5567 5568 5568 5569 5570 5572 5575 5579 5584 5588 5593 5597 5599 5602 5605 5607 5610 5613 5615 5618 5622 5624 5626 5628 5630 5631 5631 5632 5633 5635 5637 5638 5639 5640 5640 5641 5641 5641 5640 5640 5640 5639
5561 5561 5561 5563 5564 5565 5565 5567 5571 5575 5579 5583 5586 5589 5591 5588 5595 5596 5602 5605 5607 5610 5613 5615 5617 5619 5622 5620 5620 5621 5623 5624 5625 5626 5627 5628 5628 5628 5628 5627 5627 5626 5625
5555 5555 5556 5556 5557 5558 5560 5561 5563 5566 5567 5571 5575 5577 5577 5583 5585 5585 5589 5592 5596 5599 5598 5603 5605 5606 5609 5611 5611 5609 5611 5611 5612 5611 5611 5611 5612 5613 5612 5612 5611 5610 5609
5548 5549 5550 5551 5552 5553 5554 5556 5556 5558 5559 5561 5562 5565 5566 5569 5571 5572 5575 5580 5581 5577 5584 5584 5587 5592 5594 5596 5596 5597 5597 5597 5596 5596 5595 5595 5594 5595 5595 5594 5595 5593 5592
5542 5543 5544 5545 5546 5546 5548 5549 5550 5550 5550 5550 5554 5555 5555 5559 5560 5560 5564 5564 5565 5568 5569 5568 5572 5576 5578 5580 5581 5582 5581 5581 5581 5581 5583 5581 5581 5580 5580 5580 5580 5578 5576
5536 5537 5537 5538 5539 5540 5541 5542 5543 5545 5545 5546 5547 5548 5547 5547 5549 5550 5553 5555 5556 5556 5556 5559 5560 5561 5561 5563 5564 5565 5566 5566 5566 5566 5567 5567 5565 5565 5565 5566 5566 5564 5562
5531 5532 5533 5533 5532 5533 5535 5537 5537 5538 5539 5538 5539 5539 5539 5538 5540 5542 5544 5543 5544 5544 5545 5548 5549 5550 5550 5552 5553 5553 5553 5553 5553 5553 5554 5554 5553 5553 5552 5552 5550 5548 5546